Time,TemperatureF,DewpointF,PressureIn,WindDirection,WindDirectionDegrees,WindSpeedMPH,WindSpeedGustMPH,Humidity,HourlyPrecipIn,Conditions,Clouds,dailyrainin,SoftwareType,DateUTC
2013-04-24 00:07:00,62.8,54.0,30.12,SSE,155,1.0,-999.0,72,-99.99,,,0.00,weatherlink.com 1.10,2013-04-24 05:07:00,
2013-04-24 00:22:00,63.7,54.0,30.12,South,184,0.0,-999.0,70,-99.99,,,0.00,weatherlink.com 1.10,2013-04-24 05:22:00,
2013-04-24 00:37:00,63.5,54.0,30.12,SSE,167,1.0,-999.0,70,-99.99,,,0.00,weatherlink.com 1.10,2013-04-24 05:37:00,
2013-04-24 00:52:00,62.8,54.0,30.12,SSE,167,0.0,-999.0,72,-99.99,,,0.00,weatherlink.com 1.10,2013-04-24 05:52:00,
2013-04-24 01:07:00,62.0,54.0,30.11,SSE,153,4.0,-999.0,74,-99.99,,,0.00,weatherlink.com 1.10,2013-04-24 06:07:00,
2013-04-24 01:22:00,61.4,54.0,30.10,SSE,153,1.0,-999.0,76,-99.99,,,0.00,weatherlink.com 1.10,2013-04-24 06:22:00,
2013-04-24 01:37:00,61.1,54.0,30.10,SSE,153,2.0,-999.0,76,-99.99,,,0.00,weatherlink.com 1.10,2013-04-24 06:37:00,
2013-04-24 01:52:00,60.5,54.0,30.09,South,190,0.0,-999.0,78,-99.99,,,0.00,weatherlink.com 1.10,2013-04-24 06:52:00,
2013-04-24 02:07:00,59.7,54.0,30.09,SSE,159,4.0,-999.0,80,-99.99,,,0.00,weatherlink.com 1.10,2013-04-24 07:07:00,
2013-04-24 02:22:00,59.4,53.0,30.08,SSE,150,0.0,-999.0,80,-99.99,,,0.00,weatherlink.com 1.10,2013-04-24 07:22:00,
2013-04-24 02:38:00,59.4,53.0,30.08,South,182,1.0,-999.0,80,-99.99,,,0.00,weatherlink.com 1.10,2013-04-24 07:38:00,
2013-04-24 02:53:00,59.6,53.0,30.08,SSE,158,6.0,-999.0,80,-99.99,,,0.00,weatherlink.com 1.10,2013-04-24 07:53:00,
2013-04-24 03:08:00,59.1,53.0,30.08,South,182,3.0,-999.0,80,-99.99,,,0.00,weatherlink.com 1.10,2013-04-24 08:08:00,
2013-04-24 03:23:00,58.8,53.0,30.08,SSE,152,5.0,-999.0,81,-99.99,,,0.00,weatherlink.com 1.10,2013-04-24 08:23:00,
2013-04-24 03:38:00,58.7,53.0,30.08,SSE,157,7.0,-999.0,82,-99.99,,,0.00,weatherlink.com 1.10,2013-04-24 08:38:00,
2013-04-24 03:53:00,59.1,54.0,30.08,South,183,0.0,-999.0,82,-99.99,,,0.00,weatherlink.com 1.10,2013-04-24 08:53:00,
2013-04-24 04:08:00,59.8,54.0,30.08,South,176,4.0,-999.0,81,-99.99,,,0.00,weatherlink.com 1.10,2013-04-24 09:08:00,
2013-04-24 04:23:00,59.9,54.0,30.07,South,186,6.0,-999.0,81,-99.99,,,0.00,weatherlink.com 1.10,2013-04-24 09:23:00,
2013-04-24 04:38:00,59.9,54.0,30.07,SSE,165,6.0,-999.0,81,-99.99,,,0.00,weatherlink.com 1.10,2013-04-24 09:38:00,
2013-04-24 04:53:00,59.5,54.0,30.08,SSW,198,0.0,-999.0,82,-99.99,,,0.00,weatherlink.com 1.10,2013-04-24 09:53:00,
2013-04-24 05:23:00,59.2,54.0,30.07,South,186,9.0,-999.0,84,-99.99,,,0.00,weatherlink.com 1.10,2013-04-24 10:23:00,
2013-04-24 05:38:00,59.4,55.0,30.08,South,186,6.0,-999.0,84,-99.99,,,0.00,weatherlink.com 1.10,2013-04-24 10:38:00,
2013-04-24 05:53:00,59.4,55.0,30.08,SSW,194,7.0,-999.0,85,-99.99,,,0.00,weatherlink.com 1.10,2013-04-24 10:53:00,
2013-04-24 06:08:00,59.5,55.0,30.08,South,186,5.0,-999.0,85,-99.99,,,0.00,weatherlink.com 1.10,2013-04-24 11:08:00,
2013-04-24 06:23:00,59.1,55.0,30.07,South,186,6.0,-999.0,86,-99.99,,,0.00,weatherlink.com 1.10,2013-04-24 11:23:00,
2013-04-24 06:38:00,58.6,55.0,30.07,South,188,3.0,-999.0,87,-99.99,,,0.00,weatherlink.com 1.10,2013-04-24 11:38:00,
2013-04-24 06:53:00,58.8,55.0,30.07,South,188,5.0,-999.0,87,-99.99,,,0.00,weatherlink.com 1.10,2013-04-24 11:53:00,
2013-04-24 07:08:00,59.0,55.0,30.07,SSW,205,9.0,-999.0,87,-99.99,,,0.00,weatherlink.com 1.10,2013-04-24 12:08:00,
2013-04-24 07:23:00,59.8,56.0,30.08,SSE,157,5.0,-999.0,87,-99.99,,,0.00,weatherlink.com 1.10,2013-04-24 12:23:00,
2013-04-24 07:38:00,60.7,57.0,30.08,South,176,4.0,-999.0,86,-99.99,,,0.00,weatherlink.com 1.10,2013-04-24 12:38:00,
2013-04-24 07:53:00,62.2,57.0,30.08,South,181,5.0,-999.0,84,-99.99,,,0.00,weatherlink.com 1.10,2013-04-24 12:53:00,
2013-04-24 08:08:00,63.1,58.0,30.09,South,171,8.0,-999.0,82,-99.99,,,0.00,weatherlink.com 1.10,2013-04-24 13:08:00,
2013-04-24 08:23:00,63.8,58.0,30.09,SSW,197,17.0,-999.0,81,-99.99,,,0.00,weatherlink.com 1.10,2013-04-24 13:23:00,
2013-04-24 08:38:00,64.3,58.0,30.09,South,189,10.0,-999.0,81,-99.99,,,0.00,weatherlink.com 1.10,2013-04-24 13:38:00,
2013-04-24 08:53:00,64.6,58.0,30.09,SSW,194,24.0,-999.0,78,-99.99,,,0.00,weatherlink.com 1.10,2013-04-24 13:53:00,
2013-04-24 09:08:00,64.4,57.0,30.07,SSW,199,9.0,-999.0,78,-99.99,,,0.00,weatherlink.com 1.10,2013-04-24 14:08:00,
2013-04-24 09:23:00,64.9,58.0,30.08,South,186,8.0,-999.0,78,-99.99,,,0.00,weatherlink.com 1.10,2013-04-24 14:23:00,
2013-04-24 09:38:00,65.2,58.0,30.10,SSW,206,16.0,-999.0,77,-99.99,,,0.00,weatherlink.com 1.10,2013-04-24 14:38:00,
2013-04-24 09:53:00,65.0,58.0,30.11,WSW,244,10.0,-999.0,78,-99.99,,,0.00,weatherlink.com 1.10,2013-04-24 14:53:00,
2013-04-24 10:23:00,64.9,58.0,30.11,SSW,198,16.0,-999.0,78,-99.99,,,0.00,weatherlink.com 1.10,2013-04-24 15:23:00,
2013-04-24 10:38:00,65.1,58.0,30.12,SSW,213,8.0,-999.0,79,-99.99,,,0.00,weatherlink.com 1.10,2013-04-24 15:38:00,
2013-04-24 10:53:00,65.6,58.0,30.13,SW,217,9.0,-999.0,77,-99.99,,,0.00,weatherlink.com 1.10,2013-04-24 15:53:00,
2013-04-24 11:08:00,64.4,59.0,30.13,SW,227,5.0,-999.0,82,-99.99,,,0.00,weatherlink.com 1.10,2013-04-24 16:08:00,
2013-04-24 11:23:00,62.7,59.0,30.14,SW,219,11.0,-999.0,87,-99.99,,,0.01,weatherlink.com 1.10,2013-04-24 16:23:00,
2013-04-24 11:38:00,62.1,59.0,30.14,SW,216,8.0,-999.0,89,-99.99,,,0.01,weatherlink.com 1.10,2013-04-24 16:38:00,
2013-04-24 11:53:00,62.0,59.0,30.14,SSW,212,7.0,-999.0,91,-99.99,,,0.01,weatherlink.com 1.10,2013-04-24 16:53:00,
2013-04-24 12:08:00,61.9,59.0,30.14,SSW,213,9.0,-999.0,91,-99.99,,,0.01,weatherlink.com 1.10,2013-04-24 17:08:00,
2013-04-24 12:23:00,61.8,59.0,30.13,SSW,206,7.0,-999.0,91,-99.99,,,0.01,weatherlink.com 1.10,2013-04-24 17:23:00,
2013-04-24 12:38:00,61.6,59.0,30.14,SSW,213,5.0,-999.0,92,-99.99,,,0.02,weatherlink.com 1.10,2013-04-24 17:38:00,
2013-04-24 12:53:00,61.4,59.0,30.14,SSW,212,7.0,-999.0,93,-99.99,,,0.04,weatherlink.com 1.10,2013-04-24 17:53:00,
2013-04-24 13:08:00,61.4,59.0,30.13,South,186,6.0,-999.0,93,-99.99,,,0.05,weatherlink.com 1.10,2013-04-24 18:08:00,
2013-04-24 13:23:00,61.4,60.0,30.13,SW,223,7.0,-999.0,94,-99.99,,,0.01,weatherlink.com 1.10,2013-04-24 18:23:00,
2013-04-24 13:38:00,61.4,60.0,30.12,SSW,207,8.0,-999.0,94,-99.99,,,0.02,weatherlink.com 1.10,2013-04-24 18:38:00,
2013-04-24 13:53:00,61.7,60.0,30.09,SSW,198,11.0,-999.0,94,-99.99,,,0.03,weatherlink.com 1.10,2013-04-24 18:53:00,
2013-04-24 14:08:00,62.4,61.0,30.10,SW,215,13.0,-999.0,94,-99.99,,,0.04,weatherlink.com 1.10,2013-04-24 19:08:00,
2013-04-24 14:23:00,62.7,61.0,30.11,SSW,210,11.0,-999.0,93,-99.99,,,0.05,weatherlink.com 1.10,2013-04-24 19:23:00,
2013-04-24 14:39:00,62.9,61.0,30.11,WSW,250,10.0,-999.0,93,-99.99,,,0.06,weatherlink.com 1.10,2013-04-24 19:39:00,
2013-04-24 14:54:00,58.7,56.0,30.12,WNW,292,5.0,-999.0,92,-99.99,,,0.07,weatherlink.com 1.10,2013-04-24 19:54:00,
2013-04-24 15:09:00,56.1,54.0,30.12,NW,313,6.0,-999.0,94,-99.99,,,0.07,weatherlink.com 1.10,2013-04-24 20:09:00,
2013-04-24 15:34:00,-999.0,-99.9,0.00,North,-999,-999.0,-999.0,-999,-99.99,,,0.00,weatherlink.com 1.10,2013-04-24 20:34:00,
2013-04-24 15:49:00,54.1,-99.9,30.13,NW,315,6.0,-999.0,-999,-99.99,,,0.00,weatherlink.com 1.10,2013-04-24 20:49:00,
2013-04-24 16:05:00,53.3,52.0,30.14,NNW,327,9.0,-999.0,95,-99.99,,,0.01,weatherlink.com 1.10,2013-04-24 21:05:00,
2013-04-24 16:20:00,53.0,52.0,30.15,NNW,327,10.0,-999.0,95,-99.99,,,0.01,weatherlink.com 1.10,2013-04-24 21:20:00,
2013-04-24 16:35:00,52.7,51.0,30.15,NW,316,8.0,-999.0,94,-99.99,,,0.01,weatherlink.com 1.10,2013-04-24 21:35:00,
2013-04-24 16:50:00,52.3,51.0,30.16,WNW,288,6.0,-999.0,94,-99.99,,,0.01,weatherlink.com 1.10,2013-04-24 21:50:00,
2013-04-24 17:05:00,52.3,51.0,30.16,NW,310,5.0,-999.0,94,-99.99,,,0.01,weatherlink.com 1.10,2013-04-24 22:05:00,
2013-04-24 17:20:00,52.3,51.0,30.17,NW,325,8.0,-999.0,95,-99.99,,,0.01,weatherlink.com 1.10,2013-04-24 22:20:00,
2013-04-24 17:35:00,51.8,51.0,30.18,NW,313,5.0,-999.0,95,-99.99,,,0.01,weatherlink.com 1.10,2013-04-24 22:35:00,
2013-04-24 17:50:00,51.3,50.0,30.18,WNW,302,6.0,-999.0,95,-99.99,,,0.02,weatherlink.com 1.10,2013-04-24 22:50:00,
2013-04-24 18:05:00,50.8,50.0,30.19,NW,324,7.0,-999.0,95,-99.99,,,0.02,weatherlink.com 1.10,2013-04-24 23:05:00,
2013-04-24 18:20:00,50.6,49.0,30.19,NW,325,3.0,-999.0,95,-99.99,,,0.02,weatherlink.com 1.10,2013-04-24 23:20:00,
2013-04-24 18:36:00,50.5,49.0,30.20,NNW,336,6.0,-999.0,95,-99.99,,,0.02,weatherlink.com 1.10,2013-04-24 23:36:00,
2013-04-24 18:50:00,50.1,49.0,30.20,NW,309,10.0,-999.0,95,-99.99,,,0.03,weatherlink.com 1.10,2013-04-24 23:50:00,
2013-04-24 19:05:00,49.9,48.0,30.21,NNW,336,7.0,-999.0,94,-99.99,,,0.03,weatherlink.com 1.10,2013-04-25 00:05:00,
2013-04-24 19:20:00,49.8,48.0,30.21,NW,315,11.0,-999.0,93,-99.99,,,0.03,weatherlink.com 1.10,2013-04-25 00:20:00,
2013-04-24 19:35:00,49.6,48.0,30.21,North,355,5.0,-999.0,93,-99.99,,,0.03,weatherlink.com 1.10,2013-04-25 00:35:00,
2013-04-24 19:50:00,49.4,48.0,30.22,NW,326,11.0,-999.0,93,-99.99,,,0.03,weatherlink.com 1.10,2013-04-25 00:50:00,
2013-04-24 20:05:00,49.2,47.0,30.22,NW,323,7.0,-999.0,92,-99.99,,,0.03,weatherlink.com 1.10,2013-04-25 01:05:00,
2013-04-24 20:20:00,48.9,47.0,30.23,NNW,338,7.0,-999.0,92,-99.99,,,0.03,weatherlink.com 1.10,2013-04-25 01:20:00,
2013-04-24 20:35:00,48.8,47.0,30.24,NW,322,6.0,-999.0,93,-99.99,,,0.03,weatherlink.com 1.10,2013-04-25 01:35:00,
2013-04-24 20:50:00,48.7,47.0,30.24,WNW,303,4.0,-999.0,93,-99.99,,,0.03,weatherlink.com 1.10,2013-04-25 01:50:00,
2013-04-24 21:05:00,48.7,47.0,30.25,NNW,329,4.0,-999.0,93,-99.99,,,0.03,weatherlink.com 1.10,2013-04-25 02:05:00,
2013-04-24 21:20:00,48.5,46.0,30.26,NNW,336,3.0,-999.0,91,-99.99,,,0.03,weatherlink.com 1.10,2013-04-25 02:20:00,
2013-04-24 21:36:00,48.2,46.0,30.26,NW,321,2.0,-999.0,90,-99.99,,,0.03,weatherlink.com 1.10,2013-04-25 02:36:00,
2013-04-24 21:51:00,47.6,45.0,30.26,North,349,3.0,-999.0,89,-99.99,,,0.03,weatherlink.com 1.10,2013-04-25 02:51:00,
2013-04-24 22:06:00,47.4,44.0,30.26,NNW,341,4.0,-999.0,89,-99.99,,,0.03,weatherlink.com 1.10,2013-04-25 03:06:00,
2013-04-24 22:21:00,47.3,45.0,30.27,NNE,29,2.0,-999.0,90,-99.99,,,0.03,weatherlink.com 1.10,2013-04-25 03:21:00,
2013-04-24 22:36:00,47.4,44.0,30.27,NNW,334,1.0,-999.0,89,-99.99,,,0.03,weatherlink.com 1.10,2013-04-25 03:36:00,
2013-04-24 22:51:00,47.4,45.0,30.28,NNW,342,0.0,-999.0,90,-99.99,,,0.03,weatherlink.com 1.10,2013-04-25 03:51:00,
2013-04-24 23:06:00,47.3,45.0,30.28,NNW,347,3.0,-999.0,90,-99.99,,,0.03,weatherlink.com 1.10,2013-04-25 04:06:00,
2013-04-24 23:21:00,47.1,44.0,30.28,North,355,0.0,-999.0,89,-99.99,,,0.03,weatherlink.com 1.10,2013-04-25 04:21:00,
2013-04-24 23:36:00,46.9,44.0,30.29,North,351,4.0,-999.0,89,-99.99,,,0.03,weatherlink.com 1.10,2013-04-25 04:36:00,
2013-04-24 23:51:00,46.7,43.0,30.30,NNW,333,2.0,-999.0,88,-99.99,,,0.03,weatherlink.com 1.10,2013-04-25 04:51:00,